Location: El Gavilán
(32.5178°N, 116.7422°W)
Time: 21:09:49
(UTC+00:00)

Cosmos 1939 Rocket - Visible Passes

Search period start: 19 September 2024 00:00
Search period end: 29 September 2024 00:00
Orbit: 511 x 551 km, 97.5° (Epoch: 19 September)

Date Brightness Start Highest point End Pass type
(mag) Time Alt. Az. Time Alt. Az. Time Alt. Az.
19 Sep 5.8 11:20:12 10° ENE 11:22:25 15° E 11:24:38 10° SE visible
19 Sep 3.7 12:53:20 10° NNW 12:56:48 30° WNW 13:00:14 10° SW visible
20 Sep 6.0 11:11:25 10° E 11:12:19 11° E 11:13:13 10° ESE visible
20 Sep 3.3 12:43:06 10° N 12:46:49 40° WNW 12:50:30 10° SW visible
21 Sep 2.9 12:32:56 10° N 12:36:49 55° WNW 12:40:38 10° SSW visible
22 Sep 2.7 12:22:49 10° N 12:26:47 77° W 12:30:40 10° SSW visible
23 Sep 2.9 12:12:45 10° NNE 12:16:43 77° ESE 12:20:36 10° S visible
24 Sep 3.5 12:02:44 10° NNE 12:06:37 55° E 12:10:26 10° S visible
25 Sep 4.1 11:52:47 10° NNE 11:56:29 39° E 12:00:09 10° S visible
26 Sep 4.7 11:42:54 10° NE 11:46:20 29° E 11:49:44 10° SSE visible
27 Sep 5.2 11:33:06 10° NE 11:36:09 21° E 11:39:10 10° SSE visible
27 Sep 4.2 13:07:27 10° NNW 13:10:21 20° WNW 13:13:12 10° WSW visible
28 Sep 5.7 11:23:29 10° NE 11:25:56 16° E 11:28:23 10° SE visible
28 Sep 3.8 12:56:58 10° NNW 13:00:16 26° WNW 13:03:31 10° SW visible
